Weather History for KCGC - August, 2013

Change the Weather History Date:

Tuesday, August 20, 2013

  Actual Average (KGNV) Record (KGNV)
Temperature  
Mean Temperature 80 °F 81 °F  
Max Temperature 89 °F 90 °F 99 °F (1915)
Min Temperature 71 °F 72 °F 66 °F (1974)
Degree Days  
Heating Degree Days 0 0  
Month to date heating degree days 0  
Since 1 June heating degree days 0  
Since 1 July heating degree days 0  
Cooling Degree Days 15 16  
Month to date cooling degree days 320  
Year to date cooling degree days 1771  
Since 1 June cooling degree days 1261  
Growing Degree Days 30 (Base 50)    
Moisture  
Dew Point 72 °F    
Average Humidity 83    
Maximum Humidity 100    
Minimum Humidity 55    
Precipitation  
Precipitation 0.37 in 0.20 in 2.07 in (1917)
Month to date precipitation 4.10  
Year to date precipitation 33.28  
Snow  
Snow 0.00 in 0.00 in 0.00 in ()
Month to date snowfall 0.0  
Since 1 June snowfall 0.0  
Since 1 July snowfall 0.0  
Snow Depth -    
Sea Level Pressure  
Sea Level Pressure 30.06 in    
Wind  
Wind Speed 2 mph (ENE)    
Max Wind Speed 10 mph    
Max Gust Speed -    
Visibility 10 miles    
Events Rain , Thunderstorm    
T = Trace of Precipitation, MM = Missing Value Source: NWS Daily Summary

Daily Weather History Graph

Daily Weather History Graph

Search for Another Location

Airport or City:

Trip Planner

Search our weather history database for the weather conditions in past years. The results will help you decide how hot, cold, wet, or windy it might be!

Date:

Astronomy

Aug. 20, 2013 Rise Set
Actual Time 7:02 AM EDT 8:04 PM EDT
Civil Twilight 6:37 AM EDT 8:29 PM EDT
Nautical Twilight 6:08 AM EDT 8:58 PM EDT
Astronomical Twilight 5:38 AM EDT 9:28 PM EDT
Moon 7:40 PM EDT (8/20) 6:28 AM EDT (8/20)
Length of Visible Light 13h 51m
Length of Day
13h 02m
Full, 100% of the Moon is Illuminated
Aug 20
Full
Aug 20
Full
Aug 28
Last Quarter
Sep 5
New
Sep 12
First Quarter

Hourly Weather History & Observations

Time (EDT) Temp. Heat Index Dew Point Humidity Pressure Visibility Wind Dir Wind Speed Gust Speed Precip Events Conditions
12:15 AM 73.4 °F - 73.4 °F 100% 30.06 in 10.0 mi Calm Calm - N/A   Clear
12:35 AM 73.4 °F - 73.4 °F 100% 30.06 in 10.0 mi NNE 4.6 mph - N/A   Clear
12:55 AM 73.4 °F - 71.6 °F 94% 30.06 in 10.0 mi Calm Calm - N/A Thunderstorm Clear
1:15 AM 73.4 °F - 71.6 °F 94% 30.06 in 10.0 mi Calm Calm - N/A   Clear
1:35 AM 73.4 °F - 71.6 °F 94% 30.05 in 10.0 mi Calm Calm - N/A   Clear
1:55 AM 73.4 °F - 71.6 °F 94% 30.04 in 5.0 mi Calm Calm - N/A   Clear
2:15 AM 73.4 °F - 71.6 °F 94% 30.04 in 5.0 mi East 3.5 mph - N/A   Clear
2:35 AM 73.4 °F - 71.6 °F 94% 30.03 in 10.0 mi Calm Calm - N/A   Clear
2:55 AM 73.4 °F - 71.6 °F 94% 30.03 in 10.0 mi East 3.5 mph - N/A   Clear
3:15 AM 73.4 °F - 71.6 °F 94% 30.04 in 10.0 mi Calm Calm - N/A   Clear
3:35 AM 73.4 °F - 71.6 °F 94% 30.04 in 10.0 mi Calm Calm - N/A   Clear
3:55 AM 71.6 °F - 71.6 °F 100% 30.03 in 10.0 mi Calm Calm - N/A   Clear
4:15 AM 71.6 °F - 71.6 °F 100% 30.03 in 10.0 mi Calm Calm - N/A   Clear
4:35 AM 71.6 °F - 71.6 °F 100% 30.03 in 10.0 mi ENE 3.5 mph - N/A   Clear
4:55 AM 71.6 °F - 71.6 °F 100% 30.02 in 10.0 mi ENE 4.6 mph - N/A   Clear
5:15 AM 71.6 °F - 69.8 °F 94% 30.02 in 10.0 mi Calm Calm - N/A   Clear
5:35 AM 71.6 °F - 69.8 °F 94% 30.02 in 10.0 mi Calm Calm - N/A   Clear
5:55 AM 71.6 °F - 69.8 °F 94% 30.02 in 10.0 mi East 3.5 mph - N/A   Clear
6:15 AM 71.6 °F - 69.8 °F 94% 30.02 in 10.0 mi East 4.6 mph - N/A   Clear
6:35 AM 71.6 °F - 69.8 °F 94% 30.02 in 10.0 mi East 3.5 mph - N/A   Clear
6:55 AM 71.6 °F - 71.6 °F 100% 30.02 in 10.0 mi East 3.5 mph - N/A   Clear
7:15 AM 73.4 °F - 71.6 °F 94% 30.03 in 10.0 mi Calm Calm - N/A   Clear
7:35 AM 73.4 °F - 71.6 °F 94% 30.04 in 10.0 mi East 3.5 mph - N/A   Clear
7:55 AM 75.2 °F - 73.4 °F 94% 30.04 in 10.0 mi East 3.5 mph - N/A   Clear
8:15 AM 77.0 °F - 73.4 °F 89% 30.05 in 10.0 mi Calm Calm - N/A   Clear
8:35 AM 78.8 °F - 73.4 °F 83% 30.05 in 10.0 mi Calm Calm - N/A   Clear
8:55 AM 80.6 °F 85.4 °F 73.4 °F 79% 30.06 in 10.0 mi ESE 3.5 mph - N/A   Clear
9:15 AM 80.6 °F 86.2 °F 75.2 °F 84% 30.07 in 10.0 mi East 4.6 mph - N/A   Clear
9:35 AM 82.4 °F 89.5 °F 75.2 °F 79% 30.07 in 10.0 mi ESE 3.5 mph - N/A   Clear
9:55 AM 82.4 °F 89.5 °F 75.2 °F 79% 30.08 in 10.0 mi East 4.6 mph - N/A   Clear
10:15 AM 84.2 °F 90.9 °F 73.4 °F 70% 30.08 in 10.0 mi ESE 4.6 mph - N/A   Clear
10:35 AM 86.0 °F 93.4 °F 73.4 °F 66% 30.09 in 10.0 mi SE 4.6 mph - N/A   Scattered Clouds
10:55 AM 86.0 °F 93.4 °F 73.4 °F 66% 30.09 in 10.0 mi SSE 4.6 mph - N/A   Scattered Clouds
11:15 AM 87.8 °F 95.6 °F 73.4 °F 62% 30.09 in 10.0 mi East 6.9 mph - N/A   Mostly Cloudy
11:35 AM 87.8 °F 93.8 °F 71.6 °F 58% 30.09 in 10.0 mi East 8.1 mph - N/A   Scattered Clouds
11:55 AM 87.8 °F 93.8 °F 71.6 °F 58% 30.09 in 10.0 mi ESE 4.6 mph - N/A   Scattered Clouds
12:15 PM 89.6 °F 96.2 °F 71.6 °F 55% 30.09 in 10.0 mi Calm Calm - N/A   Scattered Clouds
12:35 PM 87.8 °F 93.8 °F 71.6 °F 58% 30.09 in 10.0 mi Calm Calm - N/A   Mostly Cloudy
12:55 PM 87.8 °F 93.8 °F 71.6 °F 58% 30.09 in 10.0 mi SE 3.5 mph - N/A   Mostly Cloudy
1:15 PM 87.8 °F 93.8 °F 71.6 °F 58% 30.08 in 10.0 mi Calm Calm - N/A   Scattered Clouds
1:35 PM 87.8 °F 93.8 °F 71.6 °F 58% 30.07 in 10.0 mi NE 3.5 mph - N/A   Mostly Cloudy
1:55 PM 87.8 °F 95.6 °F 73.4 °F 62% 30.07 in 10.0 mi North 4.6 mph - N/A   Mostly Cloudy
2:15 PM 87.8 °F 93.8 °F 71.6 °F 58% 30.06 in 10.0 mi Calm Calm - N/A   Mostly Cloudy
2:35 PM 87.8 °F 93.8 °F 71.6 °F 58% 30.05 in 3.0 mi Calm Calm - 0.02 in   Haze
2:55 PM 87.8 °F 95.6 °F 73.4 °F 62% 30.04 in 10.0 mi NE 3.5 mph - 0.02 in   Overcast
3:15 PM 89.6 °F 96.2 °F 71.6 °F 55% 30.03 in 10.0 mi North 3.5 mph - N/A   Scattered Clouds
3:35 PM 89.6 °F 99.8 °F 75.2 °F 62% 30.02 in 10.0 mi NW 5.8 mph - N/A   Mostly Cloudy
3:55 PM 87.8 °F 95.6 °F 73.4 °F 62% 30.01 in 10.0 mi WNW 5.8 mph - N/A   Overcast
4:15 PM 87.8 °F 93.8 °F 71.6 °F 58% 30.01 in 10.0 mi WNW 5.8 mph - N/A   Overcast
4:35 PM 86.0 °F 93.4 °F 73.4 °F 66% 30.01 in 10.0 mi West 6.9 mph - N/A   Overcast
4:55 PM 87.8 °F 97.6 °F 75.2 °F 66% 30.01 in 10.0 mi WSW 10.4 mph - N/A   Mostly Cloudy
5:15 PM 87.8 °F 95.6 °F 73.4 °F 62% 30.01 in 10.0 mi West 6.9 mph - N/A Thunderstorm Scattered Clouds
5:35 PM 86.0 °F 93.4 °F 73.4 °F 66% 30.03 in 10.0 mi SE 3.5 mph - N/A Rain , Thunderstorm Thunderstorms and Rain
5:55 PM 75.2 °F - 69.8 °F 83% 30.02 in 3.0 mi NNE 3.5 mph - 0.13 in Rain , Thunderstorm Heavy Thunderstorms and Rain
6:15 PM 75.2 °F - 71.6 °F 89% 30.03 in 10.0 mi SSE 5.8 mph - 0.01 in Rain , Thunderstorm Rain
6:35 PM 75.2 °F - 73.4 °F 94% 30.02 in 10.0 mi Calm Calm - 0.02 in Rain , Thunderstorm Light Thunderstorms and Rain
6:55 PM 75.2 °F - 73.4 °F 94% 30.05 in 10.0 mi ENE 6.9 mph - 0.02 in Rain , Thunderstorm Light Thunderstorms and Rain
7:15 PM 75.2 °F - 71.6 °F 89% 30.06 in 5.0 mi West 3.5 mph - 0.10 in Rain , Thunderstorm Heavy Thunderstorms and Rain
7:35 PM 73.4 °F - 71.6 °F 94% 30.07 in 10.0 mi NNE 3.5 mph - 0.19 in Rain , Thunderstorm Light Thunderstorms and Rain
7:55 PM 73.4 °F - 71.6 °F 94% 30.08 in 10.0 mi Calm Calm - 0.20 in Rain Light Rain
8:15 PM 73.4 °F - 71.6 °F 94% 30.09 in 10.0 mi Calm Calm - N/A Thunderstorm Mostly Cloudy
8:35 PM 73.4 °F - 71.6 °F 94% 30.11 in 10.0 mi North 3.5 mph - N/A   Mostly Cloudy
8:55 PM 73.4 °F - 71.6 °F 94% 30.10 in 10.0 mi North 5.8 mph - N/A Thunderstorm Mostly Cloudy
9:15 PM 73.4 °F - 71.6 °F 94% 30.10 in 10.0 mi Calm Calm - N/A Thunderstorm Scattered Clouds
9:35 PM 73.4 °F - 71.6 °F 94% 30.10 in 10.0 mi NE 3.5 mph - N/A   Scattered Clouds
9:55 PM 73.4 °F - 71.6 °F 94% 30.11 in 10.0 mi NNE 3.5 mph - N/A   Scattered Clouds
10:15 PM 71.6 °F - 71.6 °F 100% 30.10 in 10.0 mi NNE 4.6 mph - N/A   Clear
10:35 PM 71.6 °F - 71.6 °F 100% 30.10 in 10.0 mi East 3.5 mph - N/A   Scattered Clouds
10:55 PM 71.6 °F - 71.6 °F 100% 30.11 in 10.0 mi Calm Calm - N/A   Clear
11:15 PM 73.4 °F - 71.6 °F 94% 30.11 in 10.0 mi East 4.6 mph - N/A   Clear
11:35 PM 73.4 °F - 71.6 °F 94% 30.11 in 10.0 mi East 5.8 mph - N/A   Clear
11:55 PM 71.6 °F - 71.6 °F 100% 30.11 in 10.0 mi East 5.8 mph - N/A   Clear